sat.trackr.live / text

‹ back to catalog

THE ARAB SATELLITE 813

NORAD 66994 · 2025-292B

PAYLOAD ACTIVE UNKNOWN

§ Identity

Operator
Country
UAE
Launch date
2025-12-10
Launch site
JSC
Launch vehicle
Mass (kg)
RCS (m²)

External: N2YO · Heavens-Above · Gunter

§ Orbital elements

Epoch: 2026-09-20T12:27:51.113376Z

Period
95.54 min
Inclination
97.6253°
Eccentricity
0.0015235
Mean motion
15.07161341 rev/d
Perigee alt
534.3 km
Apogee alt
555.4 km
Semi-major
6,923.0 km
B*
1.3641e-4
RAAN
338.4312°
Arg perigee
40.0751°
Mean anomaly
320.1598°
Rev number
4,280

§ Raw data

THE ARAB SATELLITE 8131 66994U 25292B   26263.51934159  .00001993  00000+0  13641-3 0  99992 66994  97.6253 338.4312 0015235  40.0751 320.1598 15.07161341 42806

JSON: /api/v1/satellites/66994 · /tle

For live sub-satellite position, see the globe view (requires WebGL).

§ Visibility from observer

Set your observer location to see the next 7 days of passes ≥ 10°. The values pass through the URL so the page stays shareable.

No JS? Fill the form by hand. The geolocation button needs JavaScript.

§ Radio — SatNOGS DB

ModeDescriptionDownlinkUplink
FM S-Band Transmitter 2.223 GHz

1 transmitter · refreshed weekly from db.satnogs.org